Weather History for KTYS - November, 2010

Change the Weather History Date:

Monday, November 22, 2010

  Actual Average Record
Temperature  
Mean Temperature 60 °F 47 °F  
Max Temperature 74 °F 58 °F 77 °F (1931)
Min Temperature 46 °F 37 °F 15 °F (2008)
Degree Days  
Heating Degree Days 5 18  
Month to date heating degree days 287 310  
Since 1 July heating degree days 448 529  
Cooling Degree Days 0 0  
Month to date cooling degree days 0 0  
Year to date cooling degree days 2022 1523  
Growing Degree Days 10 (Base 50)    
Moisture  
Dew Point 47 °F    
Average Humidity 64    
Maximum Humidity 86    
Minimum Humidity 41    
Precipitation  
Precipitation 0.00 in 0.14 in 2.62 in (1883)
Month to date precipitation 2.90 2.79  
Year to date precipitation 39.77 42.14  
Snow  
Snow 0.00 in 0.00 in - ()
Month to date snowfall T 0.0  
Since 1 July snowfall T 0.0  
Since 1 September snowfall T 0.0  
Snow Depth 0.00 in    
Sea Level Pressure  
Sea Level Pressure 30.21 in    
Wind  
Wind Speed 7 mph (SSW)    
Max Wind Speed 24 mph    
Max Gust Speed 31 mph    
Visibility 10 miles    
Events      
T = Trace of Precipitation, MM = Missing Value Source: NWS Daily Summary

Daily Weather History Graph

Daily Weather History Graph

Search for Another Location

Airport or City:

Trip Planner

Search our weather history database for the weather conditions in past years. The results will help you decide how hot, cold, wet, or windy it might be!

Date:

Astronomy

Nov. 22, 2010 Rise Set
Actual Time 7:19 AM EST 5:24 PM EST
Civil Twilight 6:51 AM EST 5:52 PM EST
Nautical Twilight 6:20 AM EST 6:23 PM EST
Astronomical Twilight 5:49 AM EST 6:54 PM EST
Moon 6:09 PM EST (11/22) 8:16 AM EST (11/22)
Length of Visible Light 11h 01m
Length of Day
10h 05m
Full, 99% of the Moon is Illuminated
Nov 22
Full
Nov 28
Last Quarter
Dec 5
New
Dec 13
First Quarter
Dec 21
Full

Hourly Weather History & Observations

Time (EST) Temp. Dew Point Humidity Pressure Visibility Wind Dir Wind Speed Gust Speed Precip Events Conditions
12:53 AM 57.0 °F 45.0 °F 64% 30.25 in 10.0 mi SW 5.8 mph - N/A   Clear
1:53 AM 51.1 °F 44.1 °F 77% 30.25 in 10.0 mi Calm Calm - N/A   Clear
2:53 AM 51.1 °F 44.1 °F 77% 30.26 in 10.0 mi Calm Calm - N/A   Clear
3:53 AM 50.0 °F 44.1 °F 80% 30.27 in 10.0 mi Calm Calm - N/A   Partly Cloudy
4:53 AM 48.9 °F 44.1 °F 83% 30.27 in 10.0 mi Calm Calm - N/A   Scattered Clouds
5:53 AM 46.9 °F 43.0 °F 86% 30.28 in 10.0 mi NNE 3.5 mph - N/A   Clear
6:53 AM 48.0 °F 45.0 °F 89% 30.30 in 10.0 mi Calm Calm - N/A   Scattered Clouds
7:53 AM 48.0 °F 44.1 °F 86% 30.30 in 10.0 mi Calm Calm - N/A   Partly Cloudy
8:53 AM 50.0 °F 46.0 °F 86% 30.30 in 10.0 mi East 3.5 mph - N/A   Scattered Clouds
9:53 AM 57.9 °F 48.0 °F 70% 30.30 in 10.0 mi Calm Calm - N/A   Mostly Cloudy
10:53 AM 61.0 °F 48.0 °F 62% 30.29 in 10.0 mi Calm Calm - N/A   Partly Cloudy
11:53 AM 66.9 °F 50.0 °F 54% 30.25 in 10.0 mi SSE 5.8 mph - N/A   Partly Cloudy
12:53 PM 73.0 °F 52.0 °F 48% 30.20 in 10.0 mi SSW 23.0 mph 29.9 mph N/A   Partly Cloudy
1:53 PM 73.9 °F 50.0 °F 43% 30.17 in 10.0 mi SW 19.6 mph 26.5 mph N/A   Partly Cloudy
2:53 PM 73.9 °F 48.0 °F 40% 30.15 in 10.0 mi SSW 17.3 mph 27.6 mph N/A   Partly Cloudy
3:53 PM 73.0 °F 48.0 °F 41% 30.14 in 10.0 mi SSW 16.1 mph - N/A   Partly Cloudy
4:53 PM 70.0 °F 46.9 °F 44% 30.12 in 10.0 mi SSW 12.7 mph - N/A   Partly Cloudy
5:53 PM 64.0 °F 48.0 °F 56% 30.13 in 10.0 mi SSW 9.2 mph - N/A   Partly Cloudy
6:53 PM 62.1 °F 48.0 °F 60% 30.14 in 10.0 mi South 6.9 mph - N/A   Clear
7:53 PM 60.1 °F 48.0 °F 64% 30.13 in 10.0 mi SSW 8.1 mph - N/A   Clear
8:53 PM 57.9 °F 48.0 °F 70% 30.13 in 10.0 mi SSW 5.8 mph - N/A   Clear
9:53 PM 60.1 °F 48.9 °F 67% 30.13 in 10.0 mi WSW 5.8 mph - N/A   Clear
10:53 PM 57.9 °F 50.0 °F 75% 30.12 in 10.0 mi South 8.1 mph - N/A   Mostly Cloudy
11:53 PM 59.0 °F 50.0 °F 72% 30.11 in 10.0 mi SSW 9.2 mph - N/A   Scattered Clouds